Location: Newark
(31.5350°N, 35.0986°E)
Time: 05:09:12
(UTC+00:00)

Transit 4A - Pass Details

Date: 21 October 2019
Orbit: 868 x 976 km, 66.8° (Epoch: 12 November)

Event Time Altitude Azimuth Distance (km) Brightness Sun altitude
Rises 11:30:47 0° 334° (NNW) 3,522 10.7 38.0°
Reaches altitude 10° 11:33:19 10° 335° (NNW) 2,564 10.1 37.7°
Maximum altitude 11:39:15 89° 61° (ENE) 882 8.5 36.8°
Drops below altitude 10° 11:45:03 10° 156° (SSE) 2,506 10.5 36.0°
Sets 11:47:30 0° 156° (SSE) 3,437 11.1 35.6°
